Regional Weather Roundup
Issued by NWS

Home | Current Version | Previous Version | Text Only | Print | Product List | Glossary On
Versions: 1 2 3 4 5 6 7 8 9 10 11 12 13 14 15 16 17 18 19 20 21 22 23 24 25 26 27 28 29 30 31 32 33 34 35 36 37 38 39 40 41 42 43 44 45 46 47 48 49 50
000
ASUS45 KABQ 260910
RWRNM
WEATHER ROUNDUP FOR NEW MEXICO
NATIONAL WEATHER SERVICE ALBUQUERQUE NM
300 AM MDT SUN OCT 26 2014

NOTE: "FAIR" MEANS FEW OR NO CLOUDS BELOW 12,000 FEET AGL WITH NO
       SIGNIFICANT WEATHER OR OBSTRUCTIONS TO VISION.

      THIS PRODUCT IS RELEASED AS TWO VERSIONS.  ONE VERSION NEAR
      THE TOP OF THE HOUR CONTAINING PRELIMINARY DATA FROM ALBUQUERQUE
      AND OTHER STATIONS.  A FINAL VERSION WITH ADDITIONAL DATA IS
      ISSUED ABOUT 10 MINUTES AFTER THE HOUR.

NMZ501-503-504-510>518-261000-
NORTHWEST PLATEAU/NORTHCENTRAL MOUNTAINS

CITY           SKY/WX    TMP DP  RH WIND       PRES   REMARKS
FARMINGTON     CLEAR     49  34  56 E7        30.14F
LOS ALAMOS     CLEAR     60  33  35 SW7       30.25F
SANTA FE       CLEAR     44  29  55 N7        30.20S
TAOS           CLEAR     37  21  52 CALM      30.24F
ANGEL FIRE     FAIR      49  28  44 SE6       30.29S

$$
NMZ402-403-502-505>509-261000-
WESTCENTRAL MOUNTAINS/SOUTHWEST MOUNTAINS

CITY           SKY/WX    TMP DP  RH WIND       PRES   REMARKS
GALLUP         PTCLDY    46  37  71 NE3       30.22F
GRANTS         CLEAR     39  30  70 NW3       30.26F
SILVER CITY    CLEAR     54  43  66 NW8       30.21F

$$
NMZ407-409-411-412-261000-
SOUTHERN DESERTS

CITY           SKY/WX    TMP DP  RH WIND       PRES   REMARKS
LORDSBURG      FAIR      57  43  58 S7        30.12F
DEMING         CLEAR     53  44  71 NW3       30.13F
LAS CRUCES     CLEAR     58  46  63 NW7       30.14F
HOLLOMAN AFB   PTCLDY    55  43  65 CALM      30.09F
T OR C         CLEAR     60  42  51 NW9       30.15S

$$
NMZ519>523-261000-
CENTRAL VALLEYS/CENTRAL HIGHLANDS

CITY           SKY/WX    TMP DP  RH WIND       PRES   REMARKS
ALBUQUERQUE    PTCLDY    55  37  50 SE6       30.17F
DOUBLE EAGLE   CLEAR     50  33  53 SW3       30.19F
MORIARTY ARPT  FAIR      39  30  68 NW6       30.21F WCI  35
CLINES CORNERS CLEAR     52  33  48 W13       30.21F
BELEN          NOT AVBL
SOCORRO        FAIR      57  43  59 N7        30.15S

$$
NMZ524>526-539-540-261000-
SOUTHCENTRAL MOUNTAINS

CITY           SKY/WX    TMP DP  RH WIND       PRES   REMARKS
RUIDOSO        CLEAR     55  37  50 CALM      30.27F

$$
NMZ527>531-261000-
NORTHEAST HIGHLANDS/NORTHEAST PLAINS

CITY           SKY/WX    TMP DP  RH WIND       PRES   REMARKS
LAS VEGAS      CLEAR     53  31  42 S7        30.16F
RATON          PTCLDY    46  26  45 NE6       30.09F
CLAYTON        CLEAR     52  27  38 W13       29.99F

$$
NMZ532>537-261000-
EASTCENTRAL PLAINS

CITY           SKY/WX    TMP DP  RH WIND       PRES   REMARKS
TUCUMCARI      CLEAR     63  46  54 SW15      30.00F
CANNON AFB     CLEAR     56  47  71 W6        30.07F
CLOVIS AIRPORT CLEAR     52  43  71 W8        30.09S

$$
NMZ028-029-538-261000-
SOUTHEAST PLAINS

CITY           SKY/WX    TMP DP  RH WIND       PRES   REMARKS
ROSWELL        CLEAR     51  46  83 S6        30.05F
CARLSBAD       CLEAR     52  47  83 W6        30.04F
HOBBS          CLEAR     57  55  94 S8        30.08F


$$



USA.gov is the U.S. government's official web portal to all federal, state and local government web resources and services.